星链-11530 (STARLINK-11530)

导读 | 豆包AI

STARLINK-11530是美国SpaceX公司星链星座的组成卫星,于2025年1月10日发射升空。星链项目旨在构建全球低轨宽带互联网星座,为偏远地区等提供高速低延迟网络服务。该卫星采用平板设计,搭载霍尔推进器,具备自主避撞能力,服役寿命结束后会主动离轨再入大气层烧毁,减少空间碎片威胁。

基本信息
目录编号:
62562
目录名称:
STARLINK-11530
国际标识:
2025-006J
轨道中心:
EARTH
卫星名称:
星链-11530
卫星全名:
星链-11530 (STARLINK-11530)
卫星状态:
在轨 (已飞行429 天)
发射日期:
2025-01-10 UTC
国别 :
美国 (US)
星等 :
--
轨道信息
数据来源 国际轨道数据
星历时间: 2026-03-14T18:19:27+0800
16小时前
查看轨道信息
半长轴: 6734.095km
偏心率: 0.0006617
轨道倾角: 43.000°
近地点辐角 236.375°
升交点赤经 111.706°
平近点角 123.648°
近地点: 351.502km
远地点: 360.414km
周期: 91.660分钟
每日圈数: 15.710281
详细信息
固有亮度:
5
最大亮度:
2.5
卫星平台:
Starlink V1.0
覆盖范围:
全球
运营商:
太空探索技术公司
运营商所在国:
美国
制造商(研发单位):
太空探索技术公司
制造商所在国:
美国
使用方式:
暂无
卫星简介
Starlink 计划是 SpaceX 推出的全球卫星互联网项目,通过发射低轨道卫星,为全球尤其是偏远地区提供高速、低延迟的互联网服务。自 2019 年起,Starlink 已部署数千颗卫星,旨在缩小全球数字鸿沟,推动互联网普及。该项目还为军事、航空等行业提供通信支持,带来广泛经济效益。
2D轨道图
3D轨道图
轨道高度分析图
轨道倾角分析图
轨道综合分析图
查看轨道综合分析图